�N����,����,�~����,�C��,���x,�C��,����,���ϕ���,�ő�u�ԕ���,�ő厞����,���˗�,�I�_���x,�n�����x,�ő啗���N��,DTYPE
"19/11/13","00:10",0.0,9.1,87.3,1015.9,292.1,1.3,1.8,303.4,0.00,7.1,13.8,"00:00:24",1
"19/11/13","00:20",0.0,9.1,87.6,1015.9,293.8,1.6,2.4,319.2,0.00,7.2,13.7,"00:14:16",1
"19/11/13","00:30",0.0,8.9,87.8,1015.6,301.3,1.6,2.1,318.2,0.00,7.0,13.5,"00:27:04",1
"19/11/13","00:40",0.0,8.6,88.2,1015.4,303.6,1.8,2.6,316.1,0.00,6.8,13.6,"00:33:54",1
"19/11/13","00:50",0.0,8.4,88.7,1015.4,295.5,1.7,2.5,308.0,0.00,6.7,13.5,"00:42:32",1
"19/11/13","01:00",0.0,8.7,89.3,1015.4,303.4,1.7,2.0,317.0,0.00,7.1,13.4,"00:56:08",1
"19/11/13","01:10",0.0,8.7,89.7,1015.4,311.1,2.1,3.5,322.0,0.00,7.1,13.3,"01:04:56",1
"19/11/13","01:20",0.0,8.8,90.1,1015.6,310.6,2.0,3.1,331.1,0.00,7.3,13.3,"01:12:16",1
"19/11/13","01:30",0.0,9.0,90.5,1015.4,316.5,1.0,2.0,331.8,0.00,7.6,13.5,"01:25:54",1
"19/11/13","01:40",0.0,9.0,91.0,1015.6,314.9,2.0,3.5,340.0,0.00,7.7,13.3,"01:36:40",1
"19/11/13","01:50",0.0,9.2,91.1,1015.6,322.7,2.2,4.2,311.8,0.00,7.9,13.2,"01:40:02",1
"19/11/13","02:00",0.0,9.3,91.3,1016.1,325.8,2.0,3.7,339.8,0.00,8.0,13.2,"01:55:12",1
"19/11/13","02:10",0.0,9.2,91.4,1015.6,320.9,2.0,3.6,326.6,0.00,7.9,13.1,"02:06:32",1
"19/11/13","02:20",0.0,8.9,91.6,1015.9,311.9,1.8,3.2,318.1,0.00,7.6,13.1,"02:13:12",1
"19/11/13","02:30",0.0,8.7,91.7,1015.9,293.1,1.2,2.0,309.7,0.00,7.5,13.0,"02:23:44",1
"19/11/13","02:40",0.0,8.3,91.8,1015.9,288.2,0.3,1.2,304.5,0.00,7.1,13.1,"02:32:00",1
"19/11/13","02:50",0.0,8.1,92.3,1016.1,295.6,1.7,3.2,329.8,0.00,7.0,12.9,"02:48:56",1
"19/11/13","03:00",0.0,8.7,92.5,1016.4,321.5,2.3,3.7,326.2,0.00,7.6,12.9,"02:58:48",1
"19/11/13","03:10",0.0,8.8,92.4,1016.4,320.3,1.8,2.9,329.7,0.00,7.7,12.8,"03:06:24",1
"19/11/13","03:20",0.0,8.3,92.4,1016.1,285.6,0.6,1.3,315.8,0.00,7.2,12.9,"03:10:16",1
"19/11/13","03:30",0.0,7.7,92.7,1016.1,294.8,1.3,2.5,319.6,0.00,6.6,12.7,"03:22:24",1
"19/11/13","03:40",0.0,7.9,93.0,1016.4,301.9,2.0,3.1,296.8,0.00,6.9,12.7,"03:33:12",1
"19/11/13","03:50",0.0,8.0,93.1,1015.9,303.5,1.5,3.1,322.1,0.00,7.0,12.7,"03:45:36",1
"19/11/13","04:00",0.0,7.9,93.2,1016.1,309.5,2.2,3.4,320.4,0.00,6.9,12.6,"03:58:08",1
"19/11/13","04:10",0.0,7.7,93.3,1015.6,287.9,1.5,2.1,301.2,0.00,6.7,12.7,"04:04:40",1
"19/11/13","04:20",0.0,7.6,93.4,1016.1,309.1,1.3,2.5,325.9,0.00,6.6,12.5,"04:10:24",1
"19/11/13","04:30",0.0,7.4,93.6,1016.1,307.6,1.6,3.1,321.7,0.00,6.5,12.6,"04:28:48",1
"19/11/13","04:40",0.0,7.5,93.7,1015.9,317.0,1.5,3.2,319.8,0.00,6.6,12.4,"04:35:28",1
"19/11/13","04:50",0.0,7.4,93.9,1016.1,318.9,1.7,3.1,329.4,0.00,6.5,12.5,"04:49:44",1
"19/11/13","05:00",0.0,7.4,94.0,1015.9,303.8,1.8,2.6,321.3,0.00,6.5,12.4,"04:50:08",1
"19/11/13","05:10",0.0,8.2,94.2,1015.9,321.7,2.7,4.5,300.5,0.00,7.4,12.2,"05:07:04",1
"19/11/13","05:20",0.0,8.5,94.1,1015.9,324.6,3.1,5.0,336.1,0.00,7.6,12.4,"05:11:28",1
"19/11/13","05:30",0.0,8.3,94.1,1016.4,325.6,2.2,4.3,327.2,0.00,7.4,12.4,"05:20:40",1
"19/11/13","05:40",0.0,8.4,94.2,1016.4,326.7,3.0,4.9,302.5,0.00,7.6,12.5,"05:30:32",1
"19/11/13","05:50",0.0,8.1,94.2,1015.9,324.2,2.5,4.9,311.7,0.00,7.3,12.3,"05:40:24",1
"19/11/13","06:00",0.0,7.7,94.2,1016.4,320.1,2.2,3.5,334.3,0.00,6.9,12.4,"05:50:08",1
"19/11/13","06:10",0.0,7.5,94.3,1016.6,309.9,1.8,2.8,312.3,0.00,6.7,12.2,"06:05:28",1
"19/11/13","06:20",0.0,7.3,94.4,1016.4,307.5,2.0,2.7,320.6,0.00,6.5,12.3,"06:11:20",1
"19/11/13","06:30",0.0,7.1,94.5,1016.4,308.5,2.2,4.2,320.6,0.00,6.3,12.3,"06:20:02",1
"19/11/13","06:40",0.0,7.3,94.6,1015.9,312.9,2.7,3.7,332.6,0.00,6.5,12.2,"06:32:24",1
"19/11/13","06:50",0.0,7.1,94.5,1016.1,300.4,1.7,3.1,322.6,0.00,6.3,12.3,"06:42:32",1
"19/11/13","07:00",0.0,6.8,94.7,1016.1,292.0,1.3,2.6,324.2,0.00,6.1,12.2,"06:58:48",1
"19/11/13","07:10",0.0,6.9,94.7,1016.6,299.5,1.7,3.4,321.0,0.00,6.1,12.0,"07:08:08",1
"19/11/13","07:20",0.0,7.3,94.9,1016.6,314.6,2.0,3.5,320.1,0.00,6.6,12.0,"07:14:48",1
"19/11/13","07:30",0.0,7.6,94.8,1017.1,284.2,1.3,2.1,326.8,0.00,6.9,12.0,"07:20:02",1
"19/11/13","07:40",0.0,7.9,94.7,1017.1,317.3,1.7,2.9,327.4,0.00,7.1,12.0,"07:34:40",1
"19/11/13","07:50",0.0,8.1,94.7,1016.8,328.4,1.6,2.2,321.3,0.00,7.3,12.1,"07:42:16",1
"19/11/13","08:00",0.0,8.5,94.7,1016.8,313.8,1.8,2.7,335.0,0.01,7.7,12.0,"07:55:28",1
"19/11/13","08:10",0.0,9.1,94.4,1017.3,271.4,1.7,2.6,247.0,0.01,8.3,12.2,"08:08:40",1
"19/11/13","08:20",0.0,9.7,94.2,1017.3,300.1,1.1,2.4,241.8,0.02,8.9,12.2,"08:10:08",1
"19/11/13","08:30",0.0,10.0,93.8,1017.3,335.2,0.6,2.0,310.2,0.04,9.1,12.1,"08:29:44",1
"19/11/13","08:40",0.0,10.6,93.4,1017.5,300.8,1.2,2.0,321.6,0.06,9.6,12.2,"08:30:48",1
"19/11/13","08:50",0.0,11.3,93.0,1017.3,293.0,0.8,1.8,307.9,0.10,10.3,12.3,"08:45:52",1
"19/11/13","09:00",0.0,11.6,91.9,1017.3,328.1,0.8,1.9,322.5,0.13,10.4,12.6,"08:53:20",1
"19/11/13","09:10",0.0,12.1,90.5,1017.5,253.5,1.1,2.0,317.7,0.16,10.6,12.7,"09:00:02",1
"19/11/13","09:20",0.0,12.6,89.0,1017.5,309.0,1.0,2.2,344.8,0.18,10.9,12.8,"09:11:52",1
"19/11/13","09:30",0.0,12.9,86.8,1017.5,26.9,0.7,1.3,308.6,0.20,10.8,13.0,"09:22:32",1
"19/11/13","09:40",0.0,13.5,84.3,1017.5,244.5,0.5,1.0,284.3,0.23,10.9,13.1,"09:32:16",1
"19/11/13","09:50",0.0,14.2,81.1,1017.3,240.0,0.3,0.9,116.4,0.25,11.0,13.4,"09:48:16",1
"19/11/13","10:00",0.0,14.5,77.4,1017.5,106.7,0.6,1.4,104.3,0.28,10.6,13.5,"09:51:36",1
"19/11/13","10:10",0.0,14.5,73.8,1017.3,136.1,1.0,2.4,98.2,0.30,9.9,13.9,"10:03:36",1
"19/11/13","10:20",0.0,15.0,70.9,1016.8,219.9,0.7,1.6,235.3,0.32,9.8,14.0,"10:13:52",1
"19/11/13","10:30",0.0,15.4,68.5,1016.6,259.1,0.7,1.7,212.1,0.33,9.7,14.2,"10:26:40",1
"19/11/13","10:40",0.0,15.9,66.8,1016.6,188.3,0.6,1.7,135.4,0.35,9.8,14.5,"10:31:44",1
"19/11/13","10:50",0.0,16.2,66.2,1016.6,133.0,0.6,1.9,109.6,0.37,9.9,14.6,"10:40:32",1
"19/11/13","11:00",0.0,16.6,65.9,1016.1,226.8,0.5,1.8,122.4,0.38,10.2,15.0,"10:56:24",1
"19/11/13","11:10",0.0,17.0,63.9,1015.6,242.9,0.6,1.2,237.9,0.39,10.2,15.0,"11:02:56",1
"19/11/13","11:20",0.0,17.3,61.9,1015.2,349.1,0.6,1.9,157.9,0.40,10.0,15.4,"11:16:24",1
"19/11/13","11:30",0.0,17.7,59.9,1014.9,94.1,0.7,1.8,336.3,0.41,9.9,15.5,"11:22:08",1
"19/11/13","11:40",0.0,17.8,57.1,1014.9,252.2,0.5,1.1,135.7,0.42,9.2,15.8,"11:30:08",1
"19/11/13","11:50",0.0,18.3,57.3,1014.9,179.6,0.8,2.1,106.5,0.43,9.8,15.8,"11:49:28",1
"19/11/13","12:00",0.0,18.4,55.7,1014.5,212.4,0.8,2.6,200.6,0.44,9.4,16.0,"11:56:56",1
"19/11/13","12:10",0.0,18.7,53.9,1014.5,185.3,1.0,2.9,212.4,0.44,9.2,16.3,"12:04:40",1
"19/11/13","12:20",0.0,18.8,52.3,1014.0,219.2,1.0,1.9,250.8,0.44,8.9,16.5,"12:11:36",1
"19/11/13","12:30",0.0,18.9,49.7,1014.0,177.4,0.8,2.0,239.0,0.44,8.2,16.7,"12:27:12",1
"19/11/13","12:40",0.0,19.5,48.8,1013.5,146.5,0.6,2.1,121.5,0.44,8.5,17.0,"12:35:44",1
"19/11/13","12:50",0.0,19.7,47.7,1013.3,153.4,0.8,2.5,115.1,0.43,8.3,17.0,"12:49:36",1
"19/11/13","13:00",0.0,19.6,47.4,1013.0,183.5,1.1,3.5,206.3,0.43,8.2,17.1,"12:55:04",1
"19/11/13","13:10",0.0,19.8,45.0,1012.8,128.3,1.0,1.9,123.5,0.42,7.6,17.3,"13:04:56",1
"19/11/13","13:20",0.0,19.9,44.7,1012.6,181.8,1.2,2.7,113.2,0.41,7.6,17.6,"13:13:36",1
"19/11/13","13:30",0.0,20.1,41.9,1012.3,24.1,1.0,3.2,202.9,0.40,6.8,17.6,"13:21:28",1
"19/11/13","13:40",0.0,20.4,43.2,1012.1,193.8,1.0,3.1,232.4,0.39,7.5,17.6,"13:36:56",1
"19/11/13","13:50",0.0,20.4,42.5,1011.6,199.3,1.3,2.6,232.4,0.38,7.3,17.8,"13:46:32",1
"19/11/13","14:00",0.0,21.0,40.5,1011.6,323.3,0.6,2.1,355.7,0.37,7.1,18.0,"13:55:20",1
"19/11/13","14:10",0.0,20.8,42.5,1011.4,165.9,1.0,2.5,180.6,0.32,7.6,18.0,"14:05:20",1
"19/11/13","14:20",0.0,21.0,40.6,1011.2,313.5,1.0,2.2,318.3,0.32,7.2,18.0,"14:16:32",1
"19/11/13","14:30",0.0,21.0,38.9,1011.2,162.9,1.0,2.4,122.2,0.34,6.5,18.1,"14:20:40",1
"19/11/13","14:40",0.0,21.0,41.2,1011.2,190.3,1.0,2.5,214.8,0.30,7.4,18.1,"14:34:24",1
"19/11/13","14:50",0.0,21.3,40.9,1010.9,201.0,0.7,1.8,221.7,0.26,7.5,18.0,"14:42:16",1
"19/11/13","15:00",0.0,21.1,40.0,1010.7,231.4,1.2,2.2,214.1,0.21,7.0,17.9,"14:56:00",1
"19/11/13","15:10",0.0,21.0,43.0,1010.7,216.9,1.0,2.2,219.9,0.20,8.0,18.1,"15:09:36",1
"19/11/13","15:20",0.0,20.7,45.2,1010.7,192.1,1.0,2.2,224.0,0.17,8.5,18.1,"15:14:16",1
"19/11/13","15:30",0.0,20.5,45.6,1010.7,219.6,1.3,3.3,228.7,0.16,8.4,18.0,"15:25:52",1
"19/11/13","15:40",0.0,20.1,46.6,1010.7,231.9,1.2,2.7,226.3,0.10,8.4,18.1,"15:36:08",1
"19/11/13","15:50",0.0,19.6,49.6,1010.4,203.6,0.5,1.4,222.2,0.06,8.8,17.9,"15:47:36",1
"19/11/13","16:00",0.0,19.5,51.0,1010.7,270.6,0.3,1.3,236.6,0.06,9.1,17.8,"15:50:08",1
"19/11/13","16:10",0.0,19.6,54.3,1010.7,245.9,0.6,1.7,234.9,0.07,10.2,17.8,"16:08:08",1
"19/11/13","16:20",0.0,19.3,56.3,1010.7,286.9,0.6,1.6,332.3,0.05,10.4,17.6,"16:14:48",1
"19/11/13","16:30",0.0,19.6,58.1,1010.9,289.7,0.6,0.9,311.4,0.07,11.2,17.6,"16:22:08",1
"19/11/13","16:40",0.0,19.7,57.5,1010.7,277.9,0.7,0.9,280.7,0.06,11.1,17.8,"16:31:12",1
"19/11/13","16:50",0.0,19.5,61.3,1010.7,277.8,0.6,0.9,295.4,0.01,11.9,17.7,"16:41:04",1
"19/11/13","17:00",0.0,18.2,64.5,1010.2,274.8,0.2,0.5,237.7,0.00,11.4,17.7,"16:50:08",1
"19/11/13","17:10",0.0,17.1,65.7,1010.4,303.1,0.7,1.6,320.1,0.00,10.7,17.3,"17:08:50",1
"19/11/13","17:20",0.0,16.5,67.2,1010.7,314.6,1.1,2.8,340.5,0.00,10.4,17.2,"17:12:32",1
"19/11/13","17:30",0.0,15.8,68.3,1010.7,289.4,0.7,1.3,283.7,0.00,10.0,17.1,"17:26:04",1
"19/11/13","17:40",0.0,15.4,69.4,1010.7,299.0,0.8,2.5,336.0,0.00,9.9,16.9,"17:39:46",1
"19/11/13","17:50",0.0,14.9,70.3,1010.7,305.4,1.2,2.4,329.4,0.00,9.6,16.7,"17:45:08",1
"19/11/13","18:00",0.0,14.7,71.5,1010.9,298.3,1.0,1.8,328.7,0.00,9.6,16.7,"17:55:48",1
"19/11/13","18:10",0.0,14.7,73.0,1010.7,295.9,1.0,1.7,249.3,0.00,10.0,16.6,"18:03:36",1
"19/11/13","18:20",0.0,14.7,74.2,1010.7,322.0,1.2,2.1,334.4,0.00,10.2,16.6,"18:12:24",1
"19/11/13","18:30",0.0,14.6,75.8,1010.2,296.3,0.6,1.3,334.5,0.00,10.4,16.3,"18:20:32",1
"19/11/13","18:40",0.0,14.4,76.9,1010.7,299.0,0.6,1.2,255.4,0.00,10.4,16.3,"18:31:20",1
"19/11/13","18:50",0.0,14.4,78.4,1010.9,295.4,1.0,1.9,308.7,0.00,10.7,16.3,"18:46:24",1
"19/11/13","19:00",0.0,14.5,79.4,1010.9,293.5,1.1,1.6,314.6,0.00,11.0,16.3,"18:50:02",1
"19/11/13","19:10",0.0,14.6,79.7,1010.7,317.4,0.7,1.6,338.4,0.00,11.2,16.2,"19:02:40",1
"19/11/13","19:20",0.0,14.6,80.1,1010.7,308.7,0.8,1.4,342.4,0.00,11.3,16.2,"19:13:20",1
"19/11/13","19:30",0.0,14.6,80.6,1010.4,294.0,1.2,1.9,320.7,0.00,11.3,16.4,"19:27:36",1
"19/11/13","19:40",0.0,14.6,80.8,1010.7,307.1,1.1,2.0,348.7,0.00,11.4,16.1,"19:35:04",1
"19/11/13","19:50",0.0,14.4,81.0,1010.4,299.8,0.8,1.6,332.0,0.00,11.2,16.1,"19:43:52",1
"19/11/13","20:00",0.0,14.2,81.4,1010.4,299.2,0.7,1.3,278.9,0.00,11.1,16.2,"19:59:28",1
"19/11/13","20:10",0.0,14.0,81.9,1010.0,295.3,0.7,1.4,306.5,0.00,11.0,15.8,"20:00:40",1
"19/11/13","20:20",0.0,14.0,82.6,1010.4,316.7,1.2,2.0,318.7,0.00,11.1,15.9,"20:15:44",1
"19/11/13","20:30",0.0,13.9,83.4,1010.2,289.8,1.1,1.7,305.7,0.00,11.2,15.8,"20:26:24",1
"19/11/13","20:40",0.0,14.1,83.9,1010.0,330.0,1.1,1.7,351.0,0.00,11.5,15.7,"20:38:32",1
"19/11/13","20:50",0.0,13.9,84.1,1010.4,290.2,1.2,1.7,321.1,0.00,11.3,15.7,"20:41:20",1
"19/11/13","21:00",0.0,13.8,84.5,1010.4,291.8,1.1,1.6,306.3,0.00,11.3,15.8,"20:54:16",1
"19/11/13","21:10",0.0,13.9,84.8,1010.0,299.1,1.1,1.7,315.9,0.00,11.4,15.7,"21:07:12",1
"19/11/13","21:20",0.0,13.9,84.9,1010.0,292.4,1.1,1.4,314.6,0.00,11.4,15.7,"21:11:44",1
"19/11/13","21:30",0.0,13.8,85.0,1010.4,289.4,0.8,1.6,309.6,0.00,11.4,15.7,"21:29:44",1
"19/11/13","21:40",0.0,13.8,85.2,1009.5,295.5,0.7,1.8,321.0,0.00,11.4,15.7,"21:30:40",1
"19/11/13","21:50",0.0,13.7,85.4,1009.7,299.1,1.1,1.7,316.1,0.00,11.3,15.7,"21:47:20",1
"19/11/13","22:00",0.0,13.8,85.6,1009.5,309.4,1.1,1.7,321.5,0.00,11.5,15.6,"21:52:56",1
"19/11/13","22:10",0.0,13.9,85.7,1009.5,314.0,1.2,1.6,331.2,0.00,11.6,15.5,"22:02:16",1
"19/11/13","22:20",0.0,13.9,85.8,1009.0,301.2,1.0,1.3,304.9,0.00,11.6,15.4,"22:10:02",1
"19/11/13","22:30",0.0,13.9,85.9,1009.3,318.7,1.2,1.8,325.7,0.00,11.6,15.5,"22:24:40",1
"19/11/13","22:40",0.0,13.8,86.2,1009.0,286.9,0.8,1.8,312.0,0.00,11.6,15.4,"22:39:12",1
"19/11/13","22:50",0.0,13.6,86.4,1009.0,306.1,1.2,1.8,315.3,0.00,11.4,15.6,"22:49:28",1
"19/11/13","23:00",0.0,13.7,86.6,1008.8,308.8,0.8,1.6,307.2,0.00,11.5,15.6,"22:50:08",1
"19/11/13","23:10",0.2,13.7,86.9,1009.0,298.8,1.1,1.8,328.5,0.00,11.6,15.5,"23:06:40",1
"19/11/13","23:20",0.2,13.7,87.2,1008.8,289.6,0.8,1.4,315.0,0.00,11.7,15.2,"23:11:20",1
"19/11/13","23:30",0.2,13.7,87.6,1008.3,304.6,1.0,2.0,316.5,0.00,11.7,15.4,"23:27:42",1
"19/11/13","23:40",0.0,13.6,88.0,1008.6,280.9,0.8,1.4,264.4,0.00,11.7,15.4,"23:30:32",1
"19/11/13","23:50",0.2,13.6,88.6,1008.3,270.3,0.7,1.7,300.6,0.00,11.8,15.3,"23:42:32",1
"19/11/13","24:00",0.0,13.9,89.1,1008.6,267.0,1.1,1.7,239.1,0.00,12.2,15.3,"23:59:44",1
